Location: Peterborough
(44.3091°N, 78.3197°W)
Time: 00:01:13
(UTC-04:00)

SR - Pass Details

Date: 26 March 2023
Orbit: 581 x 867 km, 66.7° (Epoch: 02 June)

Event Time Altitude Azimuth Distance (km) Brightness Sun altitude
Rises 04:53:11 0° 258° (WSW) 2,946 - -23.5°
Reaches altitude 10° 04:56:20 10° 281° (W) 1,991 - -23.0°
Maximum altitude 04:59:05 16° 319° (NW) 1,609 - -22.6°
Exits shadow 04:59:23 16° 324° (NW) 1,611 ? -22.5°
Drops below altitude 10° 05:01:45 10° 357° (N) 1,934 ? -22.1°
Sets 05:04:46 0° 20° (NNE) 2,818 ? -21.7°
